Regional Weather Roundup
Issued by NWS

Home | Current Version | Previous Version | Text Only | Print | Product List | Glossary On
Versions: 1 2 3 4 5 6 7 8 9 10 11 12 13 14 15 16 17 18 19 20 21 22 23 24 25 26 27 28 29 30 31 32 33 34 35 36 37 38 39 40 41 42 43 44 45 46 47 48 49 50
000
ASUS43 KMPX 060301
RWRMN
WEATHER ROUNDUP FOR MINNESOTA
NATIONAL WEATHER SERVICE TWIN CITIES/CHANHASSEN MN
900 PM CST FRI FEB 05 2016


NOTE: "FAIR" INDICATES FEW OR NO CLOUDS BELOW 12,000 FEET WITH NO
SIGNIFICANT WEATHER AND/OR OBSTRUCTIONS TO VISIBILITY. N/A MEANS
CURRENT SKY AND/OR WEATHER CONDITIONS ARE NOT AVAILABLE.

MNZ060>063-068>070-060400-
   Twin Cities Metro

CITY           SKY/WX    TMP DP  RH WIND       PRES   REMARKS
TWIN CITIES    CLOUDY    25  20  81 S9        30.19F WCI  15
ST PAUL        CLOUDY    25  20  81 S7        30.21F WCI  17
CRYSTAL        CLOUDY    26  20  77 S10       30.16F WCI  16
BLAINE         CLOUDY    27  23  86 S9        30.15F WCI  17
LAKEVILLE      CLOUDY    25  21  86 SW3       30.19F
EDEN PRAIRIE   CLOUDY    25  20  81 S9        30.17F WCI  15
SOUTH ST PAUL  CLOUDY    26  21  82 S6        30.19F WCI  19
LAKE ELMO      CLOUDY    25  21  86 S7        30.20S WCI  17
$$
MNZ001>005-007-008-013>017-022>024-027-028-060400-
   Northwest Minnesota

CITY           SKY/WX    TMP DP  RH WIND       PRES   REMARKS
BEMIDJI        CLOUDY    16  15  95 W3        30.09S
HALLOCK        CLOUDY    12  10  92 SE8       30.08F WCI   1
ROSEAU         CLOUDY    19  16  86 SW5       30.07F WCI  13
WARROAD        CLOUDY    19  16  86 SW6       30.07F WCI  11
THIEF RVR FALL CLOUDY    12  10  92 S3        30.10S
CROOKSTON      CLOUDY    16  12  86 S6        30.12S WCI   7
FOSSTON        FOG        9   9 100 S6        30.10F VSB<1/4 WCI  -1
DETROIT LAKES  PTCLDY    21  21 100 SW3       30.12S
MOORHEAD       CLOUDY    18  16  93 S3        30.14S
PARK RAPIDS    MOCLDY    18  14  84 W5        30.09F WCI  11
MAHNOMEN       FOG       12   9  90 S5        30.11S VSB 1/4 WCI   4
$$
MNZ006-009>011-018-025>026-060400-
   North Central Minnesota

CITY           SKY/WX    TMP DP  RH WIND       PRES   REMARKS
BAUDETTE       CLOUDY    21  14  74 W5        30.05F WCI  15
FLAG ISLAND    CLOUDY    19  16  86 CALM      30.05S
INTL FALLS     CLOUDY    22  15  75 SW6       30.05F WCI  14
WASKISH        CLOUDY    19  16  86 SW9       30.08S WCI   9
LONGVILLE      CLOUDY    27  21  80 CALM      30.09S
GRAND RAPIDS   CLOUDY    27  18  69 W5        30.08R WCI  21
CRANE LAKE     CLOUDY    21  16  79 S1        30.08S
ORR            CLOUDY    23  16  74 CALM      30.04R
COOK           CLOUDY    25  18  74 SW2       30.06S
WALKER         FAIR      21  18  87 W6        30.09S WCI  13
$$
MNZ012-019>021-037-060400-
   Northeast Minnesota

CITY           SKY/WX    TMP DP  RH WIND       PRES   REMARKS
DULUTH         CLOUDY    24  13  62 W10       30.08S WCI  14
ELY            CLOUDY    23  18  80 W6        30.05S WCI  16
HIBBING        CLOUDY    23  14  68 S3        30.06F
EVELETH        CLOUDY    25  14  63 SW6       30.07S WCI  18
DULUTH HARBOR  CLOUDY    27  18  69 SW8       30.14S WCI  18
TWO HARBORS    CLOUDY    27  18  69 SW6       30.07S WCI  20
SILVER BAY     CLOUDY    27  16  63 SW3       30.06S
GRAND MARAIS     N/A     26  14  60 W7        30.07F WCI  18
G MARAIS ARPRT CLOUDY    18  10  73 W3        30.00F
$$
MNZ029>031-032-039>041-046>048-054>057-064-060400-
   West Central Minnesota

CITY           SKY/WX    TMP DP  RH WIND       PRES   REMARKS
FERGUS FALLS   FOG       19  16  86 S5        30.17S VSB 1/4 WCI  13
WHEATON        CLOUDY    23  21  93 SW3       30.18S
MORRIS         FOG       18  16  93 SW5       30.15S VSB<1/4 WCI  11
ALEXANDRIA     CLOUDY    24  20  84 W9        30.14R WCI  14
ELBOW LAKE     SNOW      15  13  94 CALM      30.15S VSB<1/4
WADENA         CLOUDY    23  19  86 W5        30.12S WCI  17
GLENWOOD       CLOUDY    25  21  86 W7        30.14S WCI  17
APPLETON       CLEAR     23  21  93 SW3       30.17S FOG
BENSON         PTCLDY    21  19  93 CALM      30.17R
ORTONVILLE     CLEAR     23  19  86 W3        30.16S
MADISON        CLEAR     21  19  93 W5        30.18S WCI  15
WILLMAR        CLOUDY    27  25  93 W7        30.17S WCI  19
$$
MNZ033>034-036-042>043-049>051-058-059-060400-
   Central Minnesota

CITY           SKY/WX    TMP DP  RH WIND       PRES   REMARKS
ST CLOUD       CLOUDY    21  17  84 S5        30.15S WCI  15
SAUK CENTRE    CLOUDY    25  22  89 W7        30.15R WCI  17
PAYNESVILLE    CLOUDY    25  22  88 W6        30.15F WCI  18
AITKIN         CLOUDY    27  16  63 SW5       30.10S WCI  21
PINE RIVER     CLOUDY    25  19  80 SW3       30.13S
BRAINERD       CLOUDY    23  17  78 S5        30.12F WCI  17
STAPLES        CLOUDY    23  19  86 W7        30.12S WCI  15
LONG PRAIRIE   CLOUDY    25  21  86 W6        30.13S WCI  18
LITTLE FALLS   CLOUDY    25  19  80 CALM      30.14S
LITCHFIELD     MOCLDY    21  21 100 CALM      30.17R FOG
BUFFALO        CLOUDY    25  22  87 S6        30.17F WCI  18
MAPLE LAKE     CLEAR     24  22  93 SW3       30.17S
$$
MNZ037-044-045-052-053-060400-
   East Central Minnesota

CITY           SKY/WX    TMP DP  RH WIND       PRES   REMARKS
PRINCETON      CLOUDY    25  21  86 S6        30.15S WCI  18
MORA           CLOUDY    27  21  80 SW7       30.17R WCI  19
CAMBRIDGE      CLOUDY    27  18  69 CALM      30.14S
RUSH CITY      CLOUDY    26  20  80 S7        30.16S WCI  18
MOOSE LAKE     CLOUDY    27  18  69 SW9       30.11S WCI  17
HINCKLEY       CLOUDY    27  21  80 SW9       30.14S WCI  17
CLOQUET        CLOUDY    25  12  58 SW9       30.09S WCI  15
MCGREGOR       CLOUDY    27  19  74 SW3       30.11S
$$
MNZ071>073-080-081-089-090-097-098-060400-
   Southwest Minnesota

CITY           SKY/WX    TMP DP  RH WIND       PRES   REMARKS
MONTEVIDEO     CLOUDY    25  19  80 CALM      30.19S
GRANITE FALLS  CLOUDY    26  24  89 W3        30.20R
CANBY          CLEAR     23  21  93 SW5       30.19R WCI  17
MARSHALL       MOCLDY    25  22  88 W8        30.19R WCI  16
REDWOOD FALLS  CLOUDY    27  23  85 W8        30.18S WCI  19
OLIVIA         CLOUDY    28  25  86 W7        30.16F WCI  21
PIPESTONE        N/A     23  16  74 W3        30.17R
WINDOM         MOCLDY    27  25  93 W7        30.17S FOG     WCI  19
WORTHINGTON    MOCLDY    25  21  86 W10       30.18S WCI  15
JACKSON        CLOUDY    28  25  86 SW9       30.19S FOG     WCI  20
TRACY          CLOUDY    29  26  87 W3        30.17F
SLAYTON        CLOUDY    27  26  98 W10       30.17S WCI  17
$$
MNZ065>067-074>077-082>085-091>093-060400-
   South Central Minnesota

CITY           SKY/WX    TMP DP  RH WIND       PRES   REMARKS
MANKATO        CLOUDY    25  21  86 S10       30.19F WCI  15
NEW ULM        PTCLDY    23  21  93 SW7       30.18F FOG     WCI  15
ST JAMES       MOCLDY    28  27  93 SW7       30.20S FOG     WCI  21
FAIRMONT       CLOUDY    27  21  80 SW8       30.19R WCI  18
GLENCOE        CLOUDY    27  25  93 S7        30.16F WCI  19
FARIBAULT      CLOUDY    25  21  86 S13       30.20S WCI  13
OWATONNA       CLOUDY    25  19  80 S16       30.20S WCI  12
WASECA         CLOUDY    25  21  86 S16       30.21F WCI  12
ALBERT LEA     CLOUDY    25  21  86 S10       30.21S WCI  15
$$
MNZ078>079-086>088-094>096-060400-
   Southeast Minnesota

CITY           SKY/WX    TMP DP  RH WIND       PRES   REMARKS
ROCHESTER      CLOUDY    21  17  84 S13       30.20F WCI   9
RED WING       MIX PCPN  25  18  74 S7        30.22F WCI  17
STANTON        CLOUDY    27  21  80 SW15      30.19F WCI  15
DODGE CENTER   CLOUDY    21  18  86 SW16G22   30.20S WCI   7
WINONA         CLOUDY    28  18  64 CALM      30.25S
AUSTIN         FLURRIES  21  19  93 S10       30.21F WCI  10
PRESTON        CLOUDY    21  15  79 S13       30.23S WCI   8
$$
ABBREVIATIONS USED IN REMARKS
   TC - TEMPERATURES IN CELSIUS
  WCI - WIND CHILL INDEX
   HX - HEAT INDEX
  VSB - VISIBILITY
$$



USA.gov is the U.S. government's official web portal to all federal, state and local government web resources and services.